This demonstration page uses our WeatherBlox Daily Observations layout. Learn more.

Left ArrowRight Arrow

Hourly Observations for May 24, 2015

Temp ( °F °C ) Dew Point ( °F °C ) Humidity (%) Winds ( mph kmh ) Pressure ( in mb ) Visibility ( mi km ) Precip ( " mm )
12:37 am 00:37 Cloudy with Drizzle 63 17 59 15 88 88 E 6 9 30.00 1016 10 16 0.00 0.00
12:51 am 00:51 Cloudy 63 17 59 15 88 88 E 3 6 30.00 1016 10 16 0.00 0.00
12:58 am 00:58 Cloudy 62 16.8 60 15.4 92 92 E 5 7 30.03 1017 10 16 0.00 0.03
12:59 am 00:59 Cloudy with Light Rain 63 17 59 15 88 88 E 5 7 30.00 1016 9 14 0.00 0.00
1:29 am 01:29 Cloudy with Light Rain 61 16 59 15 94 94 ENE 5 7 29.97 1015 4 6 0.00 0.00
1:38 am 01:38 Cloudy with Drizzle 61 16 59 15 94 94 E 6 9 29.97 1015 6 10 0.00 0.00
1:48 am 01:48 Cloudy with Rain 61 16 59 15 94 94 ENE 8 13 29.97 1015 4 6 0.00 0.00
1:58 am 01:58 Mostly Cloudy with Light Rain 61 16 60 15.4 96 96 NE 8 13 29.99 1016 5 8 0.05 1.27
2:05 am 02:05 Partly Cloudy 61 16 59 15 94 94 NE 8 13 29.97 1015 10 16 0.00 0.00
2:23 am 02:23 Mostly Cloudy 61 16 59 15 94 94 ENE 10 17 29.94 1014 10 16 0.00 0.00
2:24 am 02:24 Mostly Cloudy with Light Rain 61 16 59 15 94 94 ENE 9 15 29.94 1014 10 16 0.00 0.00
2:54 am 02:54 Mostly Cloudy with Light Rain 61 16 59 15 94 94 ENE 10 17 29.91 1013 9 14 0.00 0.00
2:58 am 02:58 Mostly Cloudy with Light Rain 60 15.7 59 15.1 96 96 ENE 9 15 29.94 1014 8 13 0.00 0.03
2:59 am 02:59 Mostly Cloudy with Light Rain 61 16 59 15 94 94 ENE 9 15 29.91 1013 7 11 0.00 0.00
3:06 am 03:06 Cloudy with Light Rain 61 16 59 15 94 94 ENE 9 15 29.91 1013 4 6 0.00 0.00
3:11 am 03:11 Cloudy with Light Rain 61 16 59 15 94 94 ENE 9 15 29.91 1013 3 5 0.00 0.00
3:38 am 03:38 Cloudy with Light Rain 61 16 59 15 94 94 ENE 8 13 29.88 1012 4 6 0.00 0.00
3:39 am 03:39 Cloudy with Light Rain 61 16 59 15 94 94 ENE 8 13 29.88 1012 4 6 0.00 0.00
3:45 am 03:45 Cloudy with Light Rain 61 16 59 15 94 94 NE 9 15 29.88 1012 5 8 0.00 0.00
3:52 am 03:52 Cloudy with Light Rain 61 16 59 15 94 94 NE 8 13 29.88 1012 5 8 0.00 0.00
3:55 am 03:55 Cloudy with Light Rain 61 16 59 15 94 94 NE 8 13 29.88 1012 6 10 0.00 0.00
3:58 am 03:58 Cloudy with Light Rain 60 15.5 59 15 97 97 NE 9 15 29.91 1013 6 10 0.09 2.29
4:03 am 04:03 Cloudy 61 16 59 15 94 94 NE 9 15 29.88 1012 8 13 0.00 0.00
4:36 am 04:36 Cloudy 61 16 59 15 94 94 ENE 13 20 29.85 1011 10 16 0.00 0.00
4:45 am 04:45 Cloudy with Drizzle 61 16 59 15 94 94 ENE 8 13 29.85 1011 9 14 0.00 0.00
4:56 am 04:56 Cloudy with Drizzle 61 16 59 15 94 94 ENE 10 17 29.85 1011 6 10 0.00 0.00
4:58 am 04:58 Cloudy with Drizzle 61 16 59 15 94 94 ENE 12 19 29.88 1012 6 10 0.00 0.03
5:02 am 05:02 Cloudy 61 16 59 15 94 94 ENE 8 13 29.85 1011 7 11 0.00 0.00
5:45 am 05:45 Cloudy 61 16 59 15 94 94 E 7 11 29.85 1011 10 16 0.00 0.00
5:58 am 05:58 Cloudy 60 15.7 59 15.1 96 96 ENE 7 11 29.88 1012 10 16 0.00 0.03
6:21 am 06:21 Cloudy 61 16 59 15 94 94 ENE 8 13 29.83 1010 10 16 0.00 0.00
6:58 am 06:58 Cloudy 61 16 59 15.2 95 95 ENE 8 13 29.87 1012 10 16 0.00 0.00
7:26 am 07:26 Cloudy 61 16 59 15 94 94 E 8 13 29.85 1011 10 16 0.00 0.00
7:39 am 07:39 Cloudy with Mist and Fog 61 16 59 15 94 94 E 8 13 29.85 1011 3 5 0.00 0.00
7:45 am 07:45 Cloudy with Mist and Fog 61 16 59 15 94 94 E 6 9 29.85 1011 3 5 0.00 0.00
7:58 am 07:58 Cloudy with Mist and Fog 61 16 60 15.5 97 97 E 6 9 29.87 1012 5 8 0.00 0.00
8:14 am 08:14 Cloudy with Mist and Fog 61 16 61 16 100 100 E 5 7 29.83 1010 4 6 0.00 0.00
8:18 am 08:18 Cloudy with Light Rain 61 16 61 16 100 100 E 5 7 29.83 1010 5 8 0.00 0.00
8:22 am 08:22 Cloudy with Light Rain 61 16 61 16 100 100 E 3 6 29.83 1010 4 6 0.00 0.00
8:45 am 08:45 Cloudy with Light Rain 61 16 61 16 100 100 ENE 5 7 29.80 1009 4 6 0.00 0.00
8:58 am 08:58 Cloudy with Drizzle 62 16.5 61 16.2 98 98 ENE 5 7 29.84 1011 5 8 0.01 0.25
9:00 am 09:00 Cloudy with Mist and Fog 63 17 61 16 94 94 ENE 5 7 29.80 1009 6 10 0.00 0.00
9:06 am 09:06 Cloudy 63 17 61 16 94 94 E 5 7 29.80 1009 8 13 0.00 0.00
9:15 am 09:15 Cloudy 63 17 61 16 94 94 E 6 9 29.80 1009 10 16 0.00 0.00
9:21 am 09:21 Cloudy 63 17 61 16 94 94 ESE 3 6 29.80 1009 10 16 0.00 0.00
9:25 am 09:25 Cloudy 63 17 61 16 94 94 ESE 3 6 29.80 1009 9 14 0.00 0.00
9:45 am 09:45 Cloudy with Mist and Fog 63 17 61 16 94 94 SE 6 9 29.80 1009 5 8 0.00 0.00
9:52 am 09:52 Cloudy with Mist and Fog 63 17 61 16 94 94 ESE 6 9 29.80 1009 6 10 0.00 0.00
9:58 am 09:58 Cloudy 62 16.7 61 16.2 97 97 SE 5 7 29.82 1010 7 11 0.01 0.25
10:19 am 10:19 Cloudy 63 17 61 16 94 94 SSE 6 9 29.80 1009 10 16 0.00 0.00
10:58 am 10:58 Cloudy 63 17.4 62 16.6 95 95 S 7 11 29.83 1010 10 16 0.00 0.00
11:37 am 11:37 Cloudy 64 18 63 17 94 94 S 5 7 29.80 1009 10 16 0.00 0.00
11:39 am 11:39 Cloudy 64 18 63 17 94 94 S 5 7 29.80 1009 10 16 0.00 0.00
11:42 am 11:42 Cloudy 64 18 63 17 94 94 S 5 7 29.80 1009 10 16 0.00 0.00
11:58 am 11:58 Mostly Cloudy 65 18.6 63 17.3 92 92 S 6 9 29.82 1010 10 16 0.00 0.00
12:09 pm 12:09 Mostly Cloudy 66 19 63 17 88 88 S 5 7 29.80 1009 10 16 0.00 0.00
12:13 pm 12:13 Mostly Cloudy 66 19 63 17 88 88 SSW 5 7 29.80 1009 10 16 0.00 0.00
12:19 pm 12:19 Cloudy 66 19 63 17 88 88 S 5 7 29.80 1009 10 16 0.00 0.00
12:21 pm 12:21 Cloudy 66 19 63 17 88 88 S 6 9 29.80 1009 10 16 0.00 0.00
12:24 pm 12:24 Cloudy 66 19 63 17 88 88 SSW 7 11 29.80 1009 10 16 0.00 0.00
12:38 pm 12:38 Cloudy 66 19 63 17 88 88 SSW 5 7 29.80 1009 10 16 0.00 0.00
12:58 pm 12:58 Cloudy 67 19.2 63 17 87 87 SW 7 11 29.82 1010 10 16 0.00 0.00
1:58 pm 13:58 Cloudy 68 19.8 62 16.6 82 82 S 6 9 29.81 1010 10 16 0.00 0.00
2:29 pm 14:29 Cloudy 68 20 63 17 83 83 SW 5 7 29.77 1008 10 16 0.00 0.00
2:58 pm 14:58 Cloudy 68 20.1 62 16.8 81 81 SSW 7 11 29.81 1010 10 16 0.00 0.00
3:03 pm 15:03 Cloudy 68 20 63 17 83 83 SSW 6 9 29.77 1008 10 16 0.00 0.00
3:08 pm 15:08 Cloudy 68 20 63 17 83 83 SSW 7 11 29.77 1008 10 16 0.00 0.00
3:26 pm 15:26 Cloudy 68 20 63 17 83 83 S 8 13 29.77 1008 10 16 0.00 0.00
3:58 pm 15:58 Cloudy 69 20.8 63 17 79 79 SW 6 9 29.79 1009 10 16 0.00 0.00
4:58 pm 16:58 Mostly Sunny 70 21.1 62 16.8 77 77 SW 6 9 29.79 1009 10 16 0.00 0.00
5:43 pm 17:43 Mostly Cloudy 70 21 63 17 78 78 W 6 9 29.77 1008 10 16 0.00 0.00
5:44 pm 17:44 Mostly Cloudy 70 21 63 17 78 78 W 5 7 29.77 1008 10 16 0.00 0.00
5:58 pm 17:58 Mostly Sunny 70 21 62 16.9 78 78 WSW 3 6 29.79 1009 10 16 0.00 0.00
6:35 pm 18:35 Mostly Cloudy 70 21 63 17 78 78 SSW 2 4 29.71 1006 10 16 0.00 0.00
6:58 pm 18:58 Mostly Cloudy 69 20.6 63 17 80 80 SSW 8 13 29.77 1008 10 16 0.00 0.00
7:14 pm 19:14 Mostly Cloudy 70 21 63 17 78 78 SSW 6 9 29.71 1006 10 16 0.00 0.00
7:17 pm 19:17 Partly Cloudy 70 21 63 17 78 78 SW 7 11 29.71 1006 10 16 0.00 0.00
7:58 pm 19:58 Sunny 69 20.3 61 16.3 78 78 SSW 7 11 29.76 1008 10 16 0.00 0.00
8:58 pm 20:58 Mostly Cloudy 68 19.8 61 16.1 79 79 SW 6 9 29.77 1008 10 16 0.00 0.00
9:58 pm 21:58 Clear 66 18.8 61 16.3 85 85 SSW 5 7 29.77 1008 10 16 0.00 0.00
10:58 pm 22:58 Mostly Cloudy 65 18.5 61 16.1 86 86 SSW 6 9 29.78 1008 10 16 0.00 0.00
11:58 pm 23:58 Partly Cloudy 63 17.4 61 15.9 91 91 S 5 7 29.78 1008 10 16 0.00 0.00

Powered by AerisWeather